Date String (YYYY-MM-DD hh:mm:ss) UTC,Instrument flags,absolute air pressure of the measurement (hPa),sample flow rate (lpm),inlet stack bypass flow (lpm),air temperature of the measurement (°C),ambient temperature measured by the external sensor (°C),aerosol sample conditioner tube jacket temperature (°C),OPC LED temperature (°C),internal box temperature (°C),relative humidity of the measurement (%),span deviation,mass concentration of particles derived from Lorenz-Mie calculation of OPC scattering (μg/m³),mass concentration of particles derived from Lorenz-Mie calculation of OPC scattering (μg/m³),mass concentration of particles derived from Lorenz-Mie calculation of OPC scattering (μg/m³)
DateTimeUTC,F1_M11,P_M11,Q1_M11,Q2_M11,T1_M11,T2_M11,T3_M11,T4_M11,T5_M11,U1_M11,ZSPAN_M11,X0_M11,X2_M11,X1_M11
2024-06-06 11:00:00,SystemResetWarning,0832.2,5.01,000.00,031.0,030.3,000.0,039.4,032.7,022.1,0000.0,0013.91,0003.50,0001.40
2024-06-06 11:01:00,SystemResetWarning,0832.2,5.00,000.00,031.0,030.3,000.0,039.4,032.7,022.0,0000.0,0012.87,0003.48,0001.39
2024-06-06 11:02:00,SystemResetWarning,0832.2,5.00,000.00,031.0,030.3,000.0,039.4,032.7,022.0,0000.0,0013.68,0003.46,0001.37
2024-06-06 11:03:00,SystemResetWarning,0832.2,4.99,000.00,031.0,030.3,000.0,039.4,032.7,022.0,0000.0,0013.95,0003.43,0001.36
2024-06-06 11:04:00,SystemResetWarning,0832.2,4.99,000.00,031.0,030.3,000.0,039.4,032.8,022.0,0000.0,0014.19,0003.42,0001.36
2024-06-06 11:05:00,SystemResetWarning,0832.2,4.99,000.00,031.1,030.3,000.0,039.4,032.7,022.1,0000.0,0015.22,0003.49,0001.35
2024-06-06 11:06:00,SystemResetWarning,0832.2,5.00,000.00,031.1,030.4,000.0,039.4,032.7,022.1,0000.0,0015.24,0003.45,0001.35
2024-06-06 11:07:00,SystemResetWarning,0832.2,5.01,000.00,031.1,030.4,000.0,039.4,032.7,022.1,0000.0,0015.23,0003.49,0001.35
2024-06-06 11:08:00,SystemResetWarning,0832.2,5.00,000.00,031.1,030.4,000.0,039.4,032.7,022.2,0000.0,0015.23,0003.50,0001.36
2024-06-06 11:09:00,SystemResetWarning,0832.2,5.00,000.00,031.1,030.4,000.0,039.4,032.8,022.2,0000.0,0014.62,0003.47,0001.35
2024-06-06 11:10:00,SystemResetWarning,0832.3,5.01,000.00,031.1,030.4,000.0,039.4,032.8,022.2,0000.0,0014.71,0003.45,0001.36
2024-06-06 11:11:00,SystemResetWarning,0832.3,4.99,000.00,031.1,030.4,000.0,039.4,032.8,022.2,0000.0,0015.52,0003.49,0001.37
2024-06-06 11:12:00,SystemResetWarning,0832.3,4.99,000.00,031.1,030.4,000.0,039.5,032.8,022.1,0000.0,0016.35,0003.50,0001.38
2024-06-06 11:13:00,SystemResetWarning,0832.3,5.00,000.00,031.1,030.4,000.0,039.5,032.8,022.1,0000.0,0015.72,0003.55,0001.39
2024-06-06 11:14:00,SystemResetWarning,0832.3,5.00,000.00,031.1,030.4,000.0,039.5,032.8,022.1,0000.0,0016.41,0003.53,0001.39
2024-06-06 11:15:00,SystemResetWarning,0832.3,5.00,000.00,031.1,030.4,000.0,039.5,032.8,022.1,0000.0,0017.00,0003.56,0001.40
2024-06-06 11:16:00,SystemResetWarning,0832.3,5.00,000.00,031.1,030.4,000.0,039.5,032.8,022.0,0000.0,0015.99,0003.51,0001.41
2024-06-06 11:17:00,SystemResetWarning,0832.3,5.00,000.00,031.1,030.4,000.0,039.5,032.8,022.0,0000.0,0016.74,0003.57,0001.41
2024-06-06 11:18:00,SystemResetWarning,0832.3,5.00,000.00,031.1,030.4,000.0,039.5,032.8,022.0,0000.0,0018.87,0003.65,0001.42
2024-06-06 11:19:00,SystemResetWarning,0832.3,5.00,000.00,031.1,030.4,000.0,039.5,032.8,022.0,0000.0,0020.93,0003.63,0001.43
2024-06-06 11:20:00,SystemResetWarning,0832.3,5.00,000.00,031.2,030.4,000.0,039.5,032.9,022.0,0000.0,0021.53,0003.62,0001.44
2024-06-06 11:21:00,SystemResetWarning,0832.3,5.01,000.00,031.2,030.4,000.0,039.6,032.9,022.0,0000.0,0022.43,0003.66,0001.45
2024-06-06 11:22:00,SystemResetWarning,0832.4,4.99,000.00,031.2,030.5,000.0,039.6,032.9,022.0,0000.0,0023.28,0003.68,0001.46
2024-06-06 11:23:00,SystemResetWarning,0832.4,5.00,000.00,031.2,030.5,000.0,039.6,032.9,022.1,0000.0,0022.67,0003.69,0001.47
2024-06-06 11:24:00,SystemResetWarning,0832.5,5.00,000.00,031.2,030.5,000.0,039.6,032.9,022.1,0000.0,0022.50,0003.66,0001.47
2024-06-06 11:25:00,SystemResetWarning,0832.5,5.00,000.00,031.2,030.5,000.0,039.6,032.9,022.0,0000.0,0023.20,0003.64,0001.46
2024-06-06 11:26:00,SystemResetWarning,0832.6,5.00,000.00,031.2,030.5,000.0,039.6,032.9,022.0,0000.0,0022.05,0003.64,0001.45
2024-06-06 11:27:00,SystemResetWarning,0832.6,5.00,000.00,031.2,030.5,000.0,039.6,032.9,022.0,0000.0,0022.84,0003.62,0001.45
2024-06-06 11:28:00,SystemResetWarning,0832.5,5.00,000.00,031.2,030.5,000.0,039.6,032.9,022.0,0000.0,0021.85,0003.55,0001.45
2024-06-06 11:29:00,SystemResetWarning,0832.5,4.99,000.00,031.2,030.5,000.0,039.6,032.9,022.1,0000.0,0019.64,0003.51,0001.45
2024-06-06 11:30:00,SystemResetWarning,0832.5,5.00,000.00,031.2,030.5,000.0,039.6,032.9,022.1,0000.0,0019.46,0003.51,0001.45
2024-06-06 11:31:00,SystemResetWarning,0832.5,5.00,000.00,031.2,030.5,000.0,039.6,032.9,022.2,0000.0,0019.99,0003.64,0001.46
2024-06-06 11:32:00,SystemResetWarning,0832.5,5.00,000.00,031.2,030.5,000.0,039.6,032.9,022.2,0000.0,0019.04,0003.66,0001.46
2024-06-06 11:33:00,SystemResetWarning,0832.5,5.00,000.00,031.2,030.5,000.0,039.6,032.9,022.4,0000.0,0018.39,0003.67,0001.46
2024-06-06 11:34:00,SystemResetWarning,0832.6,5.00,000.00,031.2,030.5,000.0,039.7,032.9,022.5,0000.0,0019.53,0003.69,0001.46
2024-06-06 11:35:00,SystemResetWarning,0832.7,5.01,000.00,031.2,030.5,000.0,039.7,032.9,022.5,0000.0,0019.43,0003.68,0001.47
2024-06-06 11:36:00,SystemResetWarning,0832.6,5.00,000.00,031.3,030.5,000.0,039.7,032.9,022.5,0000.0,0018.90,0003.76,0001.48
2024-06-06 11:37:00,SystemResetWarning,0832.6,5.01,000.00,031.3,030.5,000.0,039.7,032.9,022.5,0000.0,0019.33,0003.81,0001.49
2024-06-06 11:38:00,SystemResetWarning,0832.6,5.00,000.00,031.3,030.5,000.0,039.7,032.9,022.5,0000.0,0018.82,0003.83,0001.49
2024-06-06 11:39:00,SystemResetWarning,0832.6,5.00,000.00,031.3,030.5,000.0,039.7,033.0,022.4,0000.0,0018.48,0003.83,0001.49
2024-06-06 11:40:00,SystemResetWarning,0832.7,5.00,000.00,031.3,030.5,000.0,039.7,033.0,022.4,0000.0,0018.87,0003.85,0001.49
2024-06-06 11:41:00,SystemResetWarning,0832.7,5.00,000.00,031.3,030.5,000.0,039.7,033.0,022.5,0000.0,0018.18,0003.91,0001.52
2024-06-06 11:42:00,SystemResetWarning,0832.7,5.00,000.00,031.3,030.5,000.0,039.7,033.0,022.6,0000.0,0017.78,0003.81,0001.53
2024-06-06 11:43:00,SystemResetWarning,0832.7,5.00,000.00,031.3,030.5,000.0,039.7,033.0,022.6,0000.0,0018.87,0003.79,0001.54
2024-06-06 11:44:00,SystemResetWarning,0832.7,4.99,000.00,031.3,030.5,000.0,039.7,033.0,022.7,0000.0,0019.42,0003.79,0001.54
2024-06-06 11:45:00,SystemResetWarning,0832.7,5.01,000.00,031.3,030.5,000.0,039.7,032.9,022.6,0000.0,0017.82,0003.75,0001.54
2024-06-06 11:46:00,SystemResetWarning,0832.7,5.01,000.00,031.3,030.5,000.0,039.7,033.0,022.6,0000.0,0017.38,0003.75,0001.54
2024-06-06 11:47:00,SystemResetWarning,0832.7,5.00,000.00,031.3,030.5,000.0,039.7,033.0,022.7,0000.0,0017.07,0003.74,0001.55
2024-06-06 11:48:00,SystemResetWarning,0832.7,4.99,000.00,031.3,030.6,000.0,039.7,033.0,022.7,0000.0,0017.39,0003.71,0001.55
2024-06-06 11:49:00,SystemResetWarning,0832.7,5.00,000.00,031.3,030.6,000.0,039.7,033.0,022.7,0000.0,0019.21,0003.74,0001.56
2024-06-06 11:50:00,SystemResetWarning,0832.7,5.00,000.00,031.3,030.6,000.0,039.7,033.0,022.8,0000.0,0020.02,0003.72,0001.56
2024-06-06 11:51:00,SystemResetWarning,0832.7,5.00,000.00,031.3,030.6,000.0,039.7,033.0,022.8,0000.0,0020.65,0003.69,0001.56
2024-06-06 11:52:00,SystemResetWarning,0832.8,4.99,000.00,031.3,030.6,000.0,039.7,033.0,022.9,0000.0,0020.61,0003.65,0001.55
2024-06-06 11:53:00,SystemResetWarning,0832.8,5.00,000.00,031.3,030.6,000.0,039.8,033.0,022.9,0000.0,0019.97,0003.67,0001.54
2024-06-06 11:54:00,SystemResetWarning,0832.8,5.00,000.00,031.3,030.6,000.0,039.8,033.0,023.0,0000.0,0019.28,0003.69,0001.53
2024-06-06 11:55:00,SystemResetWarning,0832.8,4.99,000.00,031.3,030.6,000.0,039.8,033.0,023.0,0000.0,0019.42,0003.71,0001.53
2024-06-06 11:56:00,SystemResetWarning,0833.2,5.00,000.00,031.3,030.6,000.0,039.8,033.0,023.0,0000.0,0020.99,0003.74,0001.54
2024-06-06 11:57:00,SystemResetWarning,0832.9,5.00,000.00,031.3,030.6,000.0,039.8,033.0,023.0,0000.0,0022.12,0003.74,0001.55
2024-06-06 11:58:00,SystemResetWarning,0832.8,5.00,000.00,031.3,030.6,000.0,039.8,033.0,023.0,0000.0,0023.12,0003.70,0001.54
2024-06-06 11:59:00,SystemResetWarning,0832.8,5.00,000.00,031.3,030.6,000.0,039.8,033.0,023.0,0000.0,0022.62,0003.69,0001.54
